Starlink 11144

operational
NORAD ID: 59955 Int'l Des: 2024-107 Owner: SPXS Country: US Constellation: starlink
LEOCIRCULAR

Über Starlink 11144

Beschreibung wird geladen...

Live-Position

3D-Globus wird geladen...

Nächste Überflüge

Höhenverlauf

Altitude vs Time

uPlot chart will show altitude changes over time

Zweizeiliger Elementsatz

1 59955U 24107L 26093.36146375 .00000932 00000-0 12548-4 0 9990
2 59955 53.1586 129.4444 0001334 72.9111 287.2053 15.69720763106081
Epoch: 3. Apr. 2026 • Age: 21 hours

Aktueller Status

Höhe 369.0 km
Geschwindigkeit 7.69 km/s
Subsatellitenpunkt -29.52°S, 178.95°E
Startdatum 5. Juni 2024
Alter 1.8 years
Typ internet

Technische Details

Klassifizierung Payload
Masse 960.00 kg
Trockenmasse 910.00 kg
Gesamtmasse 960.00 kg
Länge 0.30 m
Durchmesser 4.10 m
Spannweite 29.00 m
Form Box + pan
Hersteller SPXS
Bus-Typ Starlink V2MD
Phasenstatus In Orbit
Besitzer/Staat SPXS/US

Große Konstellationen

Loading constellations...